Hourly Data Report for September 08, 2017

All times are specified in Local Standard Time (LST). Add 1 hour to adjust for Daylight Saving Time where and when it is observed.

CORAL HARBOUR A
NUNAVUT

64°11'36.000" N
83°21'34.000" W
62.20 m
2301002
71915
YZS

Download Data

Hourly Data (September 2017)
Hourly Data Report for September 8, 2017
Temp Definition
°C
Dew Point Temp Definition
°C
Rel Hum Definition
%
Wind Dir Definition
10's deg

Wind Spd Definition
km/h
Visibility Definition
km
Stn Press Definition
kPa
Hmdx Definition


Wind Chill Definition


Weather Definition


TIME
00:00 Legend Double Dagger 4.0 1.9 86 22 27 24.1 100.42     LegendNANA
01:00 Legend Double Dagger 4.1 1.9 85 22 29 24.1 100.37     Cloudy
02:00 Legend Double Dagger 4.3 2.5 88 22 28 24.1 100.30     LegendNANA
03:00 Legend Double Dagger 4.3 2.8 90 23 32 24.1 100.23     Rain
04:00 Legend Double Dagger 4.7 3.3 91 21 27 24.1 100.15     Rain
05:00 Legend Double Dagger 4.6 3.8 94 21 24 24.1 100.05     Rain
06:00 Legend Double Dagger 4.7 4.1 96 21 25 12.9 99.94     Rain
07:00 Legend Double Dagger 4.8 4.4 97 21 28 24.1 99.85     Rain
08:00 Legend Double Dagger 5.1 4.8 97 21 26 24.1 99.70     Rain
09:00 Legend Double Dagger 5.4 5.0 98 20 25 16.1 99.56     Rain
10:00 Legend Double Dagger 5.7 5.4 98 21 34 12.9 99.40     Rain
11:00 Legend Double Dagger 5.7 5.5 99 21 25 6.4 99.27     Rain,Fog
12:00 Legend Double Dagger 6.1 5.9 99 20 23 0.8 99.08     Rain,Fog
13:00 Legend Double Dagger 6.4 6.1 98 21 29 1.6 98.92     Rain,Fog
14:00 Legend Double Dagger 6.7 6.1 96 22 35 2.4 98.77     Fog
15:00 Legend Double Dagger 6.7 6.2 96 21 27 1.6 98.51     Fog
16:00 Legend Double Dagger 7.0 6.3 95 21 29 1.6 98.37     Fog
17:00 Legend Double Dagger 6.7 6.2 97 21 21 1.6 98.16     Fog
18:00 Legend Double Dagger 6.9 6.5 97 21 23 1.6 98.01     Fog
19:00 Legend Double Dagger 6.6 6.4 99 18 14 1.2 97.88     Fog
20:00 Legend Double Dagger 6.4 6.3 99 15 10 0.4 97.79     Fog
21:00 Legend Double Dagger 6.6 6.5 99 21 11 0.4 97.70     Fog
22:00 Legend Double Dagger 8.0 7.8 99 25 8 1.6 97.65     Fog
23:00 Legend Double Dagger 8.1 7.8 98 26 13 1.2 97.56     Fog

Notes on Data Quality.

Legend

  • E = Estimated
  • M = Missing
  • NA = Not Available
  • ‡ = Partner data that is not subject to review by the National Climate Archives
Date modified: